H1 CPF 2 NER 2024 6 24 9 176 01 glonass116 H2 0907001 9116 36111 2024 6 24 0 0 0 2024 6 27 23 45 0 900 1 1 0 0 0 1 H9 10 0 60485 0.00000 0 21975807.396 6509671.931 -11213355.007 10 0 60485 900.00000 0 20429250.640 6351982.862 -13903431.942 10 0 60485 1800.00000 0 18561263.052 6322590.750 -16323655.392 10 0 60485 2700.00000 0 16419554.559 6461048.060 -18427031.779 10 0 60485 3600.00000 0 14060560.331 6797520.764 -20172708.465 10 0 60485 4500.00000 0 11547258.846 7351327.323 -21526766.200 10 0 60485 5400.00000 0 8946729.913 8129945.305 -22462877.653 10 0 60485 6300.00000 0 6327553.671 9128528.324 -22962819.577 10 0 60485 7200.00000 0 3757158.115 10329954.546 -23016828.770 10 0 60485 8100.00000 0 1299224.726 11705405.848 -22623795.046 10 0 60485 9000.00000 0 -988740.658 13215454.538 -21791287.323 10 0 60485 9900.00000 0 -3057571.392 14811613.241 -20535412.015 10 0 60485 10800.00000 0 -4868248.697 16438284.118 -18880505.988 10 0 60485 11700.00000 0 -6393280.787 18035026.649 -16858669.423 10 0 60485 12600.00000 0 -7617595.615 19539049.582 -14509147.010 10 0 60485 13500.00000 0 -8538910.640 20887822.904 -11877568.847 10 0 60485 14400.00000 0 -9167564.907 22021700.265 -9015065.296 10 0 60485 15300.00000 0 -9525821.288 22886441.422 -5977272.758 10 0 60485 16200.00000 0 -9646669.160 23435528.146 -2823249.644 10 0 60485 17100.00000 0 -9572178.948 23632175.476 385676.109 10 0 60485 18000.00000 0 -9351479.044 23450952.849 3587105.013 10 0 60485 18900.00000 0 -9038441.719 22878946.106 6718785.491 10 0 60485 19800.00000 0 -8689177.022 21916410.728 9719830.324 10 0 60485 20700.00000 0 -8359441.798 20576888.307 12531905.565 10 0 60485 21600.00000 0 -8102074.460 18886780.943 15100368.155 10 0 60485 22500.00000 0 -7964564.844 16884401.274 17375329.660 10 0 60485 23400.00000 0 -7986862.572 14618537.878 19312625.200 10 0 60485 24300.00000 0 -8199516.922 12146596.120 20874668.878 10 0 60485 25200.00000 0 -8622226.996 9532392.116 22031179.421 10 0 60485 26100.00000 0 -9262863.445 6843691.799 22759762.514 10 0 60485 27000.00000 0 -10117003.001 4149597.350 23046339.221 10 0 60485 27900.00000 0 -11167995.467 1517889.279 22885412.911 10 0 60485 28800.00000 0 -12387560.469 -987566.000 22280170.187 10 0 60485 29700.00000 0 -13736889.134 -3309236.329 21242414.379 10 0 60485 30600.00000 0 -15168204.778 -5398072.285 19792333.244 10 0 60485 31500.00000 0 -16626717.613 -7215295.967 17958105.479 10 0 60485 32400.00000 0 -18052891.943 -8733757.088 15775353.630 10 0 60485 33300.00000 0 -19384931.330 -9938801.402 13286453.717 10 0 60485 34200.00000 0 -20561377.908 -10828616.644 10539714.655 10 0 60485 35100.00000 0 -21523717.160 -11414042.973 7588443.001 10 0 60485 36000.00000 0 -22218879.030 -11717857.111 4489910.788 10 0 60485 36900.00000 0 -22601530.378 -11773561.383 1304246.269 10 0 60485 37800.00000 0 -22636062.306 -11623729.490 -1906731.070 10 0 60485 38700.00000 0 -22298188.599 -11317979.517 -5080708.695 10 0 60485 39600.00000 0 -21576087.673 -10910660.247 -8156089.042 10 0 60485 40500.00000 0 -20471039.430 -10458348.865 -11073183.827 10 0 60485 41400.00000 0 -18997529.627 -10017266.080 -13775371.397 10 0 60485 42300.00000 0 -17182816.534 -9640718.057 -16210194.512 10 0 60485 43200.00000 0 -15065977.280 -9376673.417 -18330377.359 10 0 60485 44100.00000 0 -12696472.856 -9265577.738 -20094742.183 10 0 60485 45000.00000 0 -10132290.893 -9338498.022 -21469007.969 10 0 60485 45900.00000 0 -7437742.757 -9615675.561 -22426455.946 10 0 60485 46800.00000 0 -4681005.717 -10105548.664 -22948449.249 10 0 60485 47700.00000 0 -1931511.637 -10804286.903 -23024796.874 10 0 60485 48600.00000 0 742710.148 -11695857.212 -22653954.902 10 0 60485 49500.00000 0 3277626.211 -12752619.939 -21843060.990 10 0 60485 50400.00000 0 5615621.639 -13936430.712 -20607801.135 10 0 60485 51300.00000 0 7707651.872 -15200202.825 -18972110.833 10 0 60485 52200.00000 0 9515034.940 -16489865.357 -16967715.780 10 0 60485 53100.00000 0 11010809.994 -17746635.416 -14633520.428 10 0 60485 54000.00000 0 12180606.113 -18909509.481 -12014855.592 10 0 60485 54900.00000 0 13022985.692 -19917869.149 -9162599.260 10 0 60485 55800.00000 0 13549248.753 -20714091.473 -6132187.393 10 0 60485 56700.00000 0 13782707.211 -21246053.489 -2982533.933 10 0 60485 57600.00000 0 13757460.541 -21469424.701 225118.754 10 0 60485 58500.00000 0 13516725.457 -21349650.022 3428396.112 10 0 60485 59400.00000 0 13110791.171 -20863538.674 6565010.335 10 0 60485 60300.00000 0 12594687.755 -20000391.177 9573977.526 10 0 60485 61200.00000 0 12025667.233 -18762616.122 12396808.567 10 0 60485 62100.00000 0 11460604.916 -17165810.159 14978649.870 10 0 60485 63000.00000 0 10953431.685 -15238297.258 17269351.340 10 0 60485 63900.00000 0 10552706.361 -13020146.272 19224440.576 10 0 60485 64800.00000 0 10299431.057 -10561707.652 20805984.422 10 0 60485 65700.00000 0 10225201.883 -7921730.287 21983321.512 10 0 60485 66600.00000 0 10350772.899 -5165136.825 22733652.093 10 0 60485 67500.00000 0 10685093.633 -2360549.841 23042474.393 10 0 60485 68400.00000 0 11224860.420 422328.705 22903859.783 10 0 60485 69300.00000 0 11954600.179 3115376.428 22320562.074 10 0 60485 70200.00000 0 12847282.949 5654638.306 21303959.349 10 0 60485 71100.00000 0 13865437.417 7982736.865 19873829.828 10 0 60485 72000.00000 0 14962722.654 10051005.806 18057966.224 10 0 60485 72900.00000 0 16085890.264 11821259.673 15891636.012 10 0 60485 73800.00000 0 17177054.819 13267127.308 13416897.837 10 0 60485 74700.00000 0 18176177.465 14374894.848 10681786.989 10 0 60485 75600.00000 0 19023658.595 15143824.420 7739385.371 10 0 60485 76500.00000 0 19662930.726 15585936.474 4646793.655 10 0 60485 77400.00000 0 20042942.545 15725265.990 1464025.323 10 0 60485 78300.00000 0 20120429.473 15596624.803 -1747156.095 10 0 60485 79200.00000 0 19861874.882 15243922.918 -4924434.087 10 0 60485 80100.00000 0 19245078.909 14718120.160 -8006147.172 10 0 60485 81000.00000 0 18260268.409 14074895.095 -10932484.448 10 0 60485 81900.00000 0 16910700.437 13372129.766 -13646645.261 10 0 60485 82800.00000 0 15212732.955 12667316.611 -16095940.423 10 0 60485 83700.00000 0 13195358.920 12014997.126 -18232813.691 10 0 60485 84600.00000 0 10899222.136 11464340.334 -20015763.841 10 0 60485 85500.00000 0 8375154.937 11056963.153 -21410149.607 10 0 60486 0.00000 0 5682297.775 10825084.503 -22388862.067 10 0 60486 900.00000 0 2885876.473 10790090.901 -22932852.156 10 0 60486 1800.00000 0 54732.238 10961574.354 -23031502.031 10 0 60486 2700.00000 0 -2741298.746 11336882.926 -22682834.906 10 0 60486 3600.00000 0 -5434044.653 11901203.662 -21893557.780 10 0 60486 4500.00000 0 -7959588.051 12628174.811 -20678936.517 10 0 60486 5400.00000 0 -10260679.556 13481002.253 -19062505.152 10 0 60486 6300.00000 0 -12288875.376 14414033.813 -17075614.439 10 0 60486 7200.00000 0 -14006310.303 15374725.754 -14756827.749 10 0 60486 8100.00000 0 -15387032.769 16305919.076 -12151175.438 10 0 60486 9000.00000 0 -16417846.697 17148329.848 -9309281.617 10 0 60486 9900.00000 0 -17098625.458 17843148.485 -6286380.034 10 0 60486 10800.00000 0 -17442085.410 18334637.907 -3141238.137 10 0 60486 11700.00000 0 -17473029.273 18572620.289 64989.544 10 0 60486 12600.00000 0 -17227092.041 18514746.541 3269955.872 10 0 60486 13500.00000 0 -16749043.273 18128451.729 6411339.502 10 0 60486 14400.00000 0 -16090718.433 17392512.891 9428062.752 10 0 60486 15300.00000 0 -15308667.683 16298142.568 12261484.380 10 0 60486 16200.00000 0 -14461622.434 14849571.073 14856543.408 10 0 60486 17100.00000 0 -13607887.496 13064092.252 17162831.278 10 0 60486 18000.00000 0 -12802769.585 10971570.188 19135571.206 10 0 60486 18900.00000 0 -12096151.080 8613427.026 20736485.796 10 0 60486 19800.00000 0 -11530311.424 6041153.826 21934536.391 10 0 60486 20700.00000 0 -11138087.821 3314406.235 22706520.300 10 0 60486 21600.00000 0 -10941452.268 498763.935 23037515.051 10 0 60486 22500.00000 0 -10950564.285 -2336753.438 22921161.711 10 0 60486 23400.00000 0 -11163338.576 -5122311.231 22359782.497 10 0 60486 24300.00000 0 -11565545.243 -7789917.331 21364330.912 10 0 60486 25200.00000 0 -12131437.875 -10276002.933 19954175.742 10 0 60486 26100.00000 0 -12824882.781 -12523820.342 18156723.240 10 0 60486 27000.00000 0 -13600941.737 -14485559.347 16006884.773 10 0 60486 27900.00000 0 -14407841.650 -16124095.352 13546400.040 10 0 60486 28800.00000 0 -15189248.346 -17414297.639 10823028.642 10 0 60486 29700.00000 0 -15886748.878 -18343844.420 7889625.351 10 0 60486 30600.00000 0 -16442437.898 -18913511.745 4803116.627 10 0 60486 31500.00000 0 -16801499.145 -19136925.218 1623398.039 10 0 60486 32400.00000 0 -16914673.105 -19039785.873 -1587826.211 10 0 60486 33300.00000 0 -16740506.577 -18658603.511 -4768239.170 10 0 60486 34200.00000 0 -16247288.892 -18038991.473 -7856119.163 10 0 60486 35100.00000 0 -15414592.613 -17233595.102 -10791536.430 10 0 60486 36000.00000 0 -14234352.986 -16299741.479 -13517515.046 10 0 60486 36900.00000 0 -12711439.896 -15296909.724 -15981137.512 10 0 60486 37800.00000 0 -10863697.104 -14284128.466 -18134570.600 10 0 60486 38700.00000 0 -8721445.948 -13317410.099 -19935992.707 10 0 60486 39600.00000 0 -6326473.112 -12447329.768 -21350404.942 10 0 60486 40500.00000 0 -3730543.301 -11716850.736 -22350310.456 10 0 60486 41400.00000 0 -993497.551 -11159487.449 -22916249.109 10 0 60486 42300.00000 0 1818984.887 -10797883.373 -23037177.300 10 0 60486 43200.00000 0 4637869.245 -10642863.341 -22710685.639 10 0 60486 44100.00000 0 7393390.419 -10693000.257 -21943050.185 10 0 60486 45000.00000 0 10017712.525 -10934714.538 -20749115.901 10 0 60486 45900.00000 0 12447513.106 -11342902.356 -19152014.157 10 0 60486 46800.00000 0 14626385.227 -11882066.547 -17182719.152 10 0 60486 47700.00000 0 16506957.944 -12507902.883 -14879451.178 10 0 60486 48600.00000 0 18052647.183 -13169275.056 -12286937.748 10 0 60486 49500.00000 0 19238964.307 -13810495.199 -9455546.339 10 0 60486 50400.00000 0 20054327.950 -14373813.502 -6440305.382 10 0 60486 51300.00000 0 20500345.522 -14802011.432 -3299832.430 10 0 60486 52200.00000 0 20591553.099 -15040988.331 -95190.573 10 0 60486 53100.00000 0 20354625.233 -15042231.236 3111304.179 10 0 60486 54000.00000 0 19827088.772 -14765062.525 6257300.637 10 0 60486 54900.00000 0 19055595.754 -14178569.333 9281630.872 10 0 60486 55800.00000 0 18093829.184 -13263132.204 12125504.804 10 0 60486 56700.00000 0 17000130.974 -12011487.422 14733657.017 10 0 60486 57600.00000 0 15834952.931 -10429277.359 17055423.018 10 0 60486 58500.00000 0 14658238.970 -8535064.865 19045723.732 10 0 60486 59400.00000 0 13526849.278 -6359810.384 20665939.147 10 0 60486 60300.00000 0 12492135.015 -3945833.075 21884654.464 10 0 60486 61200.00000 0 11597765.446 -1345298.812 22678264.748 10 0 60486 62100.00000 0 10877898.401 1381702.397 23031427.050 10 0 60486 63000.00000 0 10355770.254 4169410.109 22937351.927 10 0 60486 63900.00000 0 10042763.812 6948885.119 22397929.391 10 0 60486 64800.00000 0 9937992.371 9650636.328 21423687.374 10 0 60486 65700.00000 0 10028416.528 12207274.534 20033583.908 10 0 60486 66600.00000 0 10289488.108 14556083.801 18254637.175 10 0 60486 67500.00000 0 10686293.499 16641404.596 16121400.588 10 0 60486 68400.00000 0 11175147.917 18416730.566 13675292.832 10 0 60486 69300.00000 0 11705573.181 19846432.725 10963795.580 10 0 60486 70200.00000 0 12222575.570 20907040.140 8039534.068 10 0 60486 71100.00000 0 12669127.646 21588024.623 4959258.018 10 0 60486 72000.00000 0 12988749.257 21892057.488 1782742.461 10 0 60486 72900.00000 0 13128078.722 21834728.418 -1428370.400 10 0 60486 73800.00000 0 13039325.370 21443738.922 -4611765.825 10 0 60486 74700.00000 0 12682499.595 20757604.892 -7705664.480 10 0 60486 75600.00000 0 12027325.798 19823923.238 -10650020.134 10 0 60486 76500.00000 0 11054756.850 18697275.828 -13387683.817 10 0 60486 77400.00000 0 9758025.311 17436859.040 -15865511.704 10 0 60486 78300.00000 0 8143186.127 16103938.706 -18035395.311 10 0 60486 79200.00000 0 6229126.856 14759237.496 -19855194.194 10 0 60486 80100.00000 0 4047043.573 13460364.268 -21289553.182 10 0 60486 81000.00000 0 1639402.971 12259393.145 -22310588.601 10 0 60486 81900.00000 0 -941567.470 11200693.605 -22898430.418 10 0 60486 82800.00000 0 -3635799.772 10319102.316 -23041609.970 10 0 60486 83700.00000 0 -6377637.596 9638513.085 -22737285.857 10 0 60486 84600.00000 0 -9098327.827 9170943.823 -21991303.495 10 0 60486 85500.00000 0 -11728649.070 8916119.456 -20818086.923 10 0 60487 0.00000 0 -14201568.492 8861588.190 -19240364.639 10 0 60487 900.00000 0 -16454818.460 8983366.174 -17288733.278 10 0 60487 1800.00000 0 -18433282.973 9247083.422 -15001069.149 10 0 60487 2700.00000 0 -20091099.101 9609582.613 -12421795.612 10 0 60487 3600.00000 0 -21393382.612 10020903.311 -9601021.995 10 0 60487 4500.00000 0 -22317507.107 10426567.531 -6593569.713 10 0 60487 5400.00000 0 -22853883.006 10770069.644 -3457904.582 10 0 60487 6300.00000 0 -23006203.945 10995464.699 -254996.239 10 0 60487 7200.00000 0 -22791150.582 11049944.832 2952872.593 10 0 60487 8100.00000 0 -22237564.765 10886293.782 6103323.229 10 0 60487 9000.00000 0 -21385129.514 10465114.575 9135100.033 10 0 60487 9900.00000 0 -20282611.179 9756735.115 11989266.794 10 0 60487 10800.00000 0 -18985738.685 8742710.062 14610356.506 10 0 60487 11700.00000 0 -17554809.984 7416854.635 16947451.659 10 0 60487 12600.00000 0 -16052127.177 5785765.867 18955173.788 10 0 60487 13500.00000 0 -14539368.713 3868808.580 20594563.061 10 0 60487 14400.00000 0 -13075009.289 1697565.895 21833831.131 10 0 60487 15300.00000 0 -11711895.755 -685223.375 22648973.131 10 0 60487 16200.00000 0 -10495080.302 -3227196.700 23024227.605 10 0 60487 17100.00000 0 -9460001.084 -5868305.973 22952376.178 10 0 60487 18000.00000 0 -8631085.609 -8543081.730 22434877.798 10 0 60487 18900.00000 0 -8020834.335 -11183130.009 21481835.528 10 0 60487 19800.00000 0 -7629421.726 -13719758.837 20111796.878 10 0 60487 20700.00000 0 -7444830.403 -16086625.968 18351391.726 10 0 60487 21600.00000 0 -7443511.697 -18222298.658 16234814.828 10 0 60487 22500.00000 0 -7591544.042 -20072619.879 13803162.716 10 0 60487 23400.00000 0 -7846239.758 -21592783.254 11103637.574 10 0 60487 24300.00000 0 -8158132.100 -22749031.023 8188633.176 10 0 60487 25200.00000 0 -8473258.433 -23519904.942 5114720.250 10 0 60487 26100.00000 0 -8735642.940 -23896998.475 1941550.741 10 0 60487 27000.00000 0 -8889873.788 -23885179.359 -1269297.923 10 0 60487 27900.00000 0 -8883665.649 -23502273.830 -4455516.232 10 0 60487 28800.00000 0 -8670298.969 -22778226.148 -7555270.427 10 0 60487 29700.00000 0 -8210832.505 -21753769.038 -10508401.206 10 0 60487 30600.00000 0 -7475995.118 -20478661.170 -13257590.041 10 0 60487 31500.00000 0 -6447676.231 -19009565.750 -15749470.296 10 0 60487 32400.00000 0 -5119951.185 -17407659.376 -17935661.687 10 0 60487 33300.00000 0 -3499597.229 -15736071.427 -19773708.165 10 0 60487 34200.00000 0 -1606077.191 -14057261.212 -21227901.206 10 0 60487 35100.00000 0 529009.896 -12430442.488 -22269972.822 10 0 60487 36000.00000 0 2862989.867 -10909162.803 -22879645.107 10 0 60487 36900.00000 0 5343643.337 -9539138.612 -23045025.837 10 0 60487 37800.00000 0 7911142.194 -8356436.285 -22762842.556 10 0 60487 38700.00000 0 10500313.435 -7386074.688 -22038510.504 10 0 60487 39600.00000 0 13043137.273 -6641107.382 -20886032.770 10 0 60487 40500.00000 0 15471376.603 -6122222.530 -19327734.181 10 0 60487 41400.00000 0 17719229.115 -5817876.864 -17393833.443 10 0 60487 42300.00000 0 19725892.072 -5704957.803 -15121861.239 10 0 60487 43200.00000 0 21437933.072 -5749945.511 -12555934.899 10 0 60487 44100.00000 0 22811367.926 -5910525.558 -9745903.233 10 0 60487 45000.00000 0 23813358.672 -6137583.724 -6746377.808 10 0 60487 45900.00000 0 24423460.573 -6377498.110 -3615669.447 10 0 60487 46800.00000 0 24634365.728 -6574630.920 -414650.767 10 0 60487 47700.00000 0 24452112.113 -6673913.639 2794432.584 10 0 60487 48600.00000 0 23895749.465 -6623415.166 5949178.272 10 0 60487 49500.00000 0 22996476.424 -6376783.142 8988246.735 10 0 60487 50400.00000 0 21796285.772 -5895454.025 11852559.235 10 0 60487 51300.00000 0 20346175.414 -5150537.391 14486450.474 10 0 60487 52200.00000 0 18704001.044 -4124293.809 16838752.877 10 0 60487 53100.00000 0 16932061.399 -2811143.010 18863791.137 10 0 60487 54000.00000 0 15094518.039 -1218159.026 20522267.721 10 0 60487 54900.00000 0 13254758.187 634969.282 21782022.412 10 0 60487 55800.00000 0 11472811.174 2716511.401 22618651.638 10 0 60487 56700.00000 0 9802926.368 4983778.705 23015976.198 10 0 60487 57600.00000 0 8291413.270 7384673.815 22966349.076 10 0 60487 58500.00000 0 6974833.222 9859641.793 22470797.973 10 0 60487 59400.00000 0 5878617.162 12343942.606 21539000.427 10 0 60487 60300.00000 0 5016165.951 14770150.996 20189092.331 10 0 60487 61200.00000 0 4388469.552 17070780.474 18447313.757 10 0 60487 62100.00000 0 3984259.716 19180922.962 16347498.942 10 0 60487 63000.00000 0 3780688.501 21040794.980 13930420.095 10 0 60487 63900.00000 0 3744503.130 22598084.887 11242997.491 10 0 60487 64800.00000 0 3833666.848 23810003.970 8337390.803 10 0 60487 65700.00000 0 3999356.853 24644956.259 5269988.965 10 0 60487 66600.00000 0 4188254.524 25083757.732 2100317.936 10 0 60487 67500.00000 0 4345030.823 25120354.277 -1110112.610 10 0 60487 68400.00000 0 4414921.553 24762008.650 -4299001.360 10 0 60487 69300.00000 0 4346283.230 24028948.769 -7404462.952 10 0 60487 70200.00000 0 4093021.235 22953492.465 -10366227.694 10 0 60487 71100.00000 0 3616787.098 21578685.300 -13126809.967 10 0 60487 72000.00000 0 2888851.500 19956508.526 -15632622.519 10 0 60487 72900.00000 0 1891573.213 18145732.449 -17835015.183 10 0 60487 73800.00000 0 619401.110 16209504.845 -19691217.974 10 0 60487 74700.00000 0 -920634.000 14212775.223 -21165170.436 10 0 60487 75600.00000 0 -2708959.750 12219662.267 -22228221.452 10 0 60487 76500.00000 0 -4714034.538 10290874.088 -22859686.185 10 0 60487 77400.00000 0 -6893429.400 8481288.560 -23047249.528 10 0 60487 78300.00000 0 -9195375.759 6837794.238 -22787208.356 10 0 60487 79200.00000 0 -11560715.955 5397481.429 -22084547.773 10 0 60487 80100.00000 0 -13925176.539 4186258.409 -20952849.595 10 0 60487 81000.00000 0 -16221870.701 3217950.042 -19414034.421 10 0 60487 81900.00000 0 -18383926.394 2493915.931 -17497941.672 10 0 60487 82800.00000 0 -20347131.101 2003203.576 -15241755.130 10 0 60487 83700.00000 0 -22052483.162 1723229.511 -12689284.447 10 0 60487 84600.00000 0 -23448543.082 1620959.209 -9890116.076 10 0 60487 85500.00000 0 -24493486.269 1654535.409 -6898649.766 10 0 60488 0.00000 0 -25156770.885 1775285.412 -3773039.554 10 0 60488 900.00000 0 -25420350.830 1930021.811 -574058.312 10 0 60488 1800.00000 0 -25279381.818 2063538.220 2636087.379 10 0 60488 2700.00000 0 -24742391.953 2121193.578 5794973.911 10 0 60488 3600.00000 0 -23830908.653 2051474.373 8841180.289 10 0 60488 4500.00000 0 -22578558.260 1808425.246 11715487.830 10 0 60488 5400.00000 0 -21029676.490 1353844.071 14362035.597 10 0 60488 6300.00000 0 -19237488.599 659147.652 16729408.595 10 0 60488 7200.00000 0 -17261936.195 -293171.633 18771637.230 10 0 60488 8100.00000 0 -15167242.290 -1508560.491 20449088.654 10 0 60488 9000.00000 0 -13019316.900 -2979932.910 21729232.920 10 0 60488 9900.00000 0 -10883111.848 -4687732.351 22587269.566 10 0 60488 10800.00000 0 -8820035.082 -6600525.994 23006603.118 10 0 60488 11700.00000 0 -6885531.977 -8676106.794 22979159.003 10 0 60488 12600.00000 0 -5126933.721 -10863057.904 22505534.391 10 0 60488 13500.00000 0 -3581661.447 -13102714.844 21594981.637 10 0 60488 14400.00000 0 -2275859.745 -15331444.258 20265224.991 10 0 60488 15300.00000 0 -1223515.164 -17483144.938 18542114.340 10 0 60488 16200.00000 0 -426095.056 -19491867.555 16459122.667 10 0 60488 17100.00000 0 127279.591 -21294444.517 14056696.780 10 0 60488 18000.00000 0 459135.898 -22833020.790 11381473.636 10 0 60488 18900.00000 0 602455.933 -24057380.545 8485377.094 10 0 60488 19800.00000 0 599039.817 -24926972.767 5424612.313 10 0 60488 20700.00000 0 497494.861 -25412551.413 2258577.031 10 0 60488 21600.00000 0 350936.166 -25497361.607 -951289.271 10 0 60488 22500.00000 0 214496.308 -25177822.293 -4142696.082 10 0 60488 23400.00000 0 142749.747 -24463676.724 -7253709.277 10 0 60488 24300.00000 0 187161.221 -23377604.483 -10223951.748 10 0 60488 25200.00000 0 393666.376 -21954311.071 -12995773.829 10 0 60488 26100.00000 0 800487.336 -20239133.187 -15515370.810 10 0 60488 27000.00000 0 1436276.026 -18286217.666 -17733825.783 10 0 60488 27900.00000 0 2318664.352 -16156350.087 -19608057.824 10 0 60488 28800.00000 0 3453283.098 -13914523.621 -21101657.315 10 0 60488 29700.00000 0 4833291.973 -11627349.029 -22185592.458 10 0 60488 30600.00000 0 6439441.779 -9360413.421 -22838773.525 10 0 60488 31500.00000 0 8240667.484 -7175697.398 -23048464.130 10 0 60488 32400.00000 0 10195188.829 -5129157.573 -22810531.613 10 0 60488 33300.00000 0 12252073.930 -3268574.577 -22129531.616 10 0 60488 34200.00000 0 14353201.877 -1631755.605 -21018624.907 10 0 60488 35100.00000 0 16435543.575 -245165.817 -19499327.647 10 0 60488 36000.00000 0 18433666.559 876954.964 -17601099.325 10 0 60488 36900.00000 0 20282359.763 1732953.953 -15360775.708 10 0 60488 37800.00000 0 21919268.900 2333591.053 -12821857.197 10 0 60488 38700.00000 0 23287432.238 2701336.514 -10033665.832 10 0 60488 39600.00000 0 24337610.345 2869170.890 -7050387.021 10 0 60488 40500.00000 0 25030311.701 2878938.684 -3930014.516 10 0 60488 41400.00000 0 25337428.679 2779326.113 -733219.297 10 0 60488 42300.00000 0 25243414.605 2623549.410 2477835.166 10 0 60488 43200.00000 0 24745951.988 2466852.548 5640707.591 10 0 60488 44100.00000 0 23856083.495 2363921.384 8693899.137 10 0 60488 45000.00000 0 22597800.028 2366324.822 11578054.642 10 0 60488 45900.00000 0 21007103.258 2520092.344 14237120.788 10 0 60488 46800.00000 0 19130582.190 2863531.355 16619438.139 10 0 60488 47700.00000 0 17023563.769 3425377.461 18678745.498 10 0 60488 48600.00000 0 14747915.355 4223356.457 20375077.033 10 0 60488 49500.00000 0 12369591.232 5263219.295 21675535.037 10 0 60488 50400.00000 0 9956025.794 6538291.148 22554923.743 10 0 60488 51300.00000 0 7573482.051 8029554.036 22996232.561 10 0 60488 52200.00000 0 5284465.565 9706260.014 22990960.064 10 0 60488 53100.00000 0 3145310.851 11527049.755 22539273.104 10 0 60488 54000.00000 0 1204039.762 13441530.244 21649998.554 10 0 60488 54900.00000 0 -501420.211 15392246.266 20340448.218 10 0 60488 55800.00000 0 -1944584.873 17316963.876 18636080.502 10 0 60488 56700.00000 0 -3111274.782 19151171.112 16570005.403 10 0 60488 57600.00000 0 -3999954.787 20830692.061 14182342.227 10 0 60488 58500.00000 0 -4621538.955 22294305.524 11519442.192 10 0 60488 59400.00000 0 -4998670.451 23486259.204 8632990.697 10 0 60488 60300.00000 0 -5164507.815 24358574.489 5579006.285 10 0 60488 61200.00000 0 -5161069.749 24873045.491 2416755.524 10 0 60488 62100.00000 0 -5037208.979 25002848.587 -792395.322 10 0 60488 63000.00000 0 -4846301.336 24733694.885 -3986169.584 10 0 60488 63900.00000 0 -4643748.189 24064477.141 -7102587.330 10 0 60488 64800.00000 0 -4484398.182 23007383.734 -10081166.864 10 0 60488 65700.00000 0 -4419997.590 21587474.558 -12864097.175 10 0 60488 66600.00000 0 -4496777.399 19841736.161 -15397358.504 10 0 60488 67500.00000 0 -4753279.452 17817655.219 -17631769.346 10 0 60488 68400.00000 0 -5218513.877 15571369.595 -19523939.737 10 0 60488 69300.00000 0 -5910526.130 13165473.601 -21037112.518 10 0 60488 70200.00000 0 -6835434.734 10666568.522 -22141876.533 10 0 60488 71100.00000 0 -7986981.159 8142659.812 -22816738.216 10 0 60488 72000.00000 0 -9346611.870 5660508.693 -23048540.623 10 0 60488 72900.00000 0 -10884090.322 3283047.713 -22832721.939 10 0 60488 73800.00000 0 -12558614.592 1066967.058 -22173408.328 10 0 60488 74700.00000 0 -14320395.119 -939428.587 -21083339.078 10 0 60488 75600.00000 0 -16112627.703 -2698004.144 -19583625.046 10 0 60488 76500.00000 0 -17873780.239 -4182145.546 -17703344.509 10 0 60488 77400.00000 0 -19540098.157 -5377622.717 -15478983.589 10 0 60488 78300.00000 0 -21048224.119 -6282928.782 -12953731.500 10 0 60488 79200.00000 0 -22337822.303 -6909082.060 -10176643.719 10 0 60488 80100.00000 0 -23354096.966 -7278899.939 -7201689.015 10 0 60488 81000.00000 0 -24050099.134 -7425776.073 -4086698.736 10 0 60488 81900.00000 0 -24388723.854 -7392013.382 -892238.939 10 0 60488 82800.00000 0 -24344313.309 -7226784.253 2319572.267 10 0 60488 83700.00000 0 -23903797.643 -6983805.253 5486278.509 10 0 60488 84600.00000 0 -23067324.888 -6718825.826 8546305.718 10 0 60488 85500.00000 0 -21848353.017 -6487038.377 11440164.882 99